JE7ZDC Weather Reports


time (UTC)temp
C
wind
direction
speed
KPH
gust
KPH
rain 1hr
cm
rain 24hr
cm
rain mn
cm
humidity
%
barometer
mb
20260505191553 10 143 0.0 8.0 0.00 0.00 0.00 76 1020.9
20260505190051 10 150 0.0 4.8 0.00 0.00 0.00 76 1020.6
20260505184549 10 190 0.0 3.2 0.00 0.05 0.00 75 1020.5
20260505183047 10 250 0.0 11.3 0.00 0.05 0.00 73 1020.5
20260505181550 10 120 0.0 4.8 0.00 0.05 0.00 72 1020.6
20260505180043 10 150 0.0 6.4 0.00 0.05 0.00 71 1020.5
20260505174544 10 151 1.6 11.3 0.00 0.05 0.00 70 1020.4
20260505173038 10 155 1.6 9.7 0.00 0.05 0.00 69 1020.3
20260505171538 10 162 0.0 8.0 0.00 0.05 0.00 67 1020.2
20260505170034 11 156 0.0 12.9 0.00 0.05 0.00 66 1020.2
20260505164532 11 128 0.0 8.0 0.00 0.05 0.00 67 1020.0
20260505163029 11 120 0.0 11.3 0.00 0.05 0.00 67 1020.1
20260505161529 11 134 1.6 9.7 0.00 0.05 0.00 68 1020.1
20260505153023 12 200 3.2 11.3 0.00 0.05 0.00 67 1020.0
20260505151520 12 149 1.6 16.1 0.00 0.05 0.00 66 1020.0
20260505124514 11 143 0.0 1.6 0.00 0.05 0.05 75 1020.0
20260505123009 11 121 0.0 1.6 0.00 0.05 0.05 74 1019.9
20260505121509 11 131 0.0 1.6 0.00 0.05 0.05 74 1019.9
20260505120010 12 129 0.0 0.0 0.00 0.08 0.05 71 1019.8
20260505114507 12 124 0.0 4.8 0.00 0.08 0.05 70 1019.8
20260505113007 12 145 0.0 1.6 0.00 0.08 0.05 70 1019.7
20260505111511 12 145 0.0 1.6 0.00 0.08 0.05 71 1019.5
20260505101601 13 135 0.0 0.0 0.00 0.08 0.05 61 1018.9
20260505100057 15 233 0.0 0.0 0.00 0.08 0.05 50 1018.5
20260505094556 15 233 0.0 0.0 0.00 0.08 0.05 47 1018.3
20260505093102 16 120 0.0 0.0 0.00 0.08 0.05 44 1018.1
20260505091554 16 120 0.0 0.0 0.00 0.08 0.05 43 1018.0
20260505090054 17 120 0.0 0.0 0.00 0.08 0.05 42 1018.0
20260505084553 19 120 0.0 0.0 0.00 0.23 0.05 38 1017.8
20260505083053 22 174 0.0 0.0 0.00 0.23 0.05 33 1017.9
20260505081554 22 174 0.0 0.0 0.00 0.23 0.05 33 1017.8
20260505080049 21 239 0.0 1.6 0.00 0.23 0.05 29 1017.7
20260505074545 21 297 0.0 6.4 0.00 0.25 0.05 29 1017.7
20260505073048 20 295 0.0 4.8 0.00 0.25 0.05 28 1017.6
20260505071550 21 62 0.0 1.6 0.00 0.25 0.05 31 1017.6
20260505070037 20 217 0.0 6.4 0.00 0.25 0.05 33 1017.4
20260505064532 20 262 0.0 8.0 0.00 0.25 0.05 31 1017.3
20260505063028 20 281 0.0 3.2 0.00 0.25 0.05 38 1017.4
20260505061523 20 285 0.0 6.4 0.00 0.25 0.05 38 1017.7
20260505060020 19 269 0.0 3.2 0.00 0.25 0.05 44 1017.7
20260505054525 20 172 0.0 9.7 0.00 0.25 0.05 38 1017.6
20260505053024 19 85 0.0 6.4 0.00 0.25 0.05 42 1017.6
20260505051518 19 131 0.0 1.6 0.00 0.25 0.05 41 1017.8
20260505041504 18 202 0.0 4.8 0.00 0.25 0.05 40 1017.9
20260505040106 19 110 0.0 3.2 0.00 0.25 0.05 42 1018.1
20260505034557 19 106 0.0 3.2 0.00 0.25 0.05 40 1018.1
20260505033055 18 246 0.0 3.2 0.00 0.25 0.05 46 1018.2
20260505031552 18 67 0.0 4.8 0.00 0.25 0.05 46 1018.4
20260505030049 18 139 1.6 4.8 0.00 0.25 0.05 45 1018.6
20260505024547 16 150 0.0 3.2 0.00 0.25 0.05 49 1018.6
20260505023051 16 37 0.0 11.3 0.00 0.25 0.05 47 1018.4
20260505021543 17 281 0.0 11.3 0.00 0.25 0.05 45 1018.5
20260505020041 17 64 3.2 17.7 0.00 0.25 0.05 45 1018.5
20260505014538 17 278 0.0 8.0 0.00 0.25 0.05 45 1018.6
20260505013034 16 39 0.0 9.7 0.00 0.25 0.05 49 1018.4
20260505011530 15 318 0.0 6.4 0.00 0.25 0.05 49 1018.4
20260505010029 15 175 3.2 11.3 0.00 0.25 0.05 51 1018.3
20260505004528 15 32 0.0 9.7 0.00 0.25 0.05 52 1018.3
20260505003027 14 165 1.6 12.9 0.00 0.25 0.05 52 1018.3
20260505001525 15 278 0.0 12.9 0.00 0.25 0.05 51 1018.1
20260505000124 15 246 0.0 8.0 0.00 0.25 0.05 53 1018.0
20260504234519 15 77 0.0 12.9 0.00 0.25 0.05 55 1017.6
20260504233016 14 247 0.0 4.8 0.00 0.25 0.05 57 1017.5
20260504231513 13 270 0.0 6.4 0.00 0.25 0.05 59 1017.4
20260504230011 13 268 0.0 8.0 0.00 0.25 0.05 60 1017.6
20260504224509 13 84 1.6 8.0 0.00 0.25 0.05 62 1017.4
20260504223005 12 37 0.0 3.2 0.00 0.25 0.05 70 1017.0
20260504221600 11 111 0.0 1.6 0.00 0.25 0.05 72 1016.8
20260504220115 10 30 0.0 3.2 0.00 0.25 0.05 75 1016.7
20260504214556 10 96 0.0 1.6 0.00 0.25 0.05 78 1016.6
20260504213056 9 37 0.0 3.2 0.00 0.25 0.05 82 1016.5
20260504211553 8 4 0.0 1.6 0.00 0.25 0.05 85 1016.4
20260504210046 7 37 0.0 3.2 0.00 0.25 0.05 87 1015.9
20260504204544 6 157 0.0 0.0 0.00 0.25 0.05 89 1015.7
20260504203042 -17 0.0 0.0 0.00 0.25 0.05 1015.5
20260504201538 -17 0.0 0.0 0.00 0.25 0.05 1015.3
20260504200040 -17 0.0 0.0 0.00 0.25 0.05 1015.0
20260504194528 -17 0.0 0.0 0.00 0.28 0.05 1014.6
20260504193023 -17 0.0 0.0 0.03 0.28 0.05 1014.5